Regional Weather Roundup
Issued by NWS

Home | Current Version | Previous Version | Text Only | Print | Product List | Glossary On
Versions: 1 2 3 4 5 6 7 8 9 10 11 12 13 14 15 16 17 18 19 20 21 22 23 24 25 26 27 28 29 30 31 32 33 34 35 36 37 38 39 40 41 42 43 44 45 46 47 48 49 50
915
ASUS43 KLSX 260910
RWRMO

WEATHER SUMMARY FOR MISSOURI
NATIONAL WEATHER SERVICE SPRINGFIELD MO
400 AM CDT SAT MAY 26 2018

NOTE: "FAIR" INDICATES FEW OR NO CLOUDS BELOW 12,000 FEET WITH NO
       SIGNIFICANT WEATHER AND/OR OBSTRUCTIONS TO VISIBILITY.
       CURRENT SKY AND/OR WEATHER CONDITIONS ARE NOT AVAILABLE FOR
       CHILLICOTHE AND FARMINGTON.

MOZ001>031-035>038-043-044-053-054-261000-
...NORTHERN AND WESTERN MISSOURI...

CITY           SKY/WX    TMP DP  RH WIND       PRES   REMARKS
KANSAS CTY INT CLEAR     71  66  84 SW7       29.79F
KANSAS C DTWN  CLEAR     72  65  78 CALM      29.78F
LEE`S SUMMIT   CLEAR     70  68  93 SW8       29.81S
ST JOSEPH      CLEAR     69  67  93 S6        29.77S
CHILLICOTHE      N/A     72  68  87 S3        29.79S
KIRKSVILLE     CLEAR     66  66 100 S3        29.81R

$$
MOZ066>068-077>081-088>096-101>105-261000-
...SOUTHWEST MISSOURI...

CITY           SKY/WX    TMP DP  RH WIND       PRES   REMARKS
SPRINGFIELD    CLOUDY    65  63  93 S5        29.84F FOG
JOPLIN         CLEAR     66  65  96 S5        29.85R
BRANSON        FOG       63  63 100 CALM      29.86F VSB 1/2

$$
MOZ032>034-039>042-045>050-055>058-069>072-261000-
...CENTRAL MISSOURI...

CITY           SKY/WX    TMP DP  RH WIND       PRES   REMARKS
COLUMBIA       PTCLDY    67  65  93 SW6       29.81R FOG
JEFFERSON CITY CLOUDY    70  66  87 CALM      29.81R
ROLLA          PTCLDY    65  63  93 SW8       29.83F
SEDALIA        CLEAR     70  68  93 SW9       29.81F
WHITEMAN AFB   CLEAR     68  67  97 SW8       29.76F
WARRENSBURG    CLEAR     68  66  94 S6        29.80S
OSAGE BEACH    CLEAR     66  64  93 SW3       29.83F

$$
MOZ051-052-059>065-261000-
...EAST CENTRAL MISSOURI...

CITY           SKY/WX    TMP DP  RH WIND       PRES   REMARKS
ST LOUIS INTL  MOCLDY    71  68  90 SW6       29.80F
SPIRIT OF STL  PTCLDY    69  68  96 CALM      29.79S
ST CHARLES     PTCLDY    70  69  97 CALM      29.79S

$$
MOZ072>076-082>087-097>100-106>115-261000-
...SOUTH CENTRAL AND SOUTHEAST MISSOURI...

CITY           SKY/WX    TMP DP  RH WIND       PRES   REMARKS
CAPE GIRARDEAU FAIR      69  67  93 S3        29.83S
FARMINGTON     PTCLDY    65  65 100 CALM      29.84S FOG
POPLAR BLUFF   FAIR      70  70 100 S5        29.82F FOG
WEST PLAINS    CLOUDY    66  65  96 S5        29.86S

$$




USA.gov is the U.S. government's official web portal to all federal, state and local government web resources and services.